TimeAEST,TemperatureF,Dew PointF,Humidity,Sea Level PressureIn,VisibilityMPH,Wind Direction,Wind SpeedMPH,Gust SpeedMPH,PrecipitationIn,Events,Conditions,WindDirDegrees,DateUTC
12:00 AM,76,67,68,30.02,,East,12.7,,,,,100,2013-12-01 14:00:00
12:00 AM,75.2,68.0,78,30.01,6.2,East,12.7,-,N/A,,Overcast,100,2013-12-01 14:00:00
1:00 AM,75.2,66.2,73,30.01,6.2,East,12.7,-,N/A,,Scattered Clouds,100,2013-12-01 15:00:00
2:00 AM,75.2,64.4,69,29.98,6.2,East,12.7,-,N/A,,Scattered Clouds,100,2013-12-01 16:00:00
3:00 AM,73,65,70,30.00,,East,6.9,,,,,100,2013-12-01 17:00:00
3:00 AM,73.4,64.4,73,29.98,6.2,East,6.9,-,N/A,,Scattered Clouds,100,2013-12-01 17:00:00
4:00 AM,71.6,68.0,88,30.01,6.2,South,5.8,-,N/A,,Overcast,190,2013-12-01 18:00:00
5:00 AM,69.8,66.2,88,30.01,6.2,SSW,5.8,-,N/A,,Overcast,200,2013-12-01 19:00:00
6:00 AM,72,67,78,30.03,,South,5.8,,,,Overcast,170,2013-12-01 20:00:00
6:00 AM,71.6,68.0,88,30.01,6.2,South,5.8,-,N/A,,Overcast,170,2013-12-01 20:00:00
7:00 AM,75.2,68.0,78,30.04,6.2,South,8.1,-,N/A,,Overcast,190,2013-12-01 21:00:00
8:00 AM,77.0,68.0,74,30.06,6.2,South,10.4,-,N/A,,Mostly Cloudy,170,2013-12-01 22:00:00
9:00 AM,78,67,60,30.06,11,SSE,11.5,,,,Haze,160,2013-12-01 23:00:00
9:00 AM,77.0,66.2,69,30.04,6.2,SSE,11.5,-,N/A,,Overcast,160,2013-12-01 23:00:00
10:00 AM,82.4,62.6,51,30.04,6.2,ESE,19.6,-,N/A,,Scattered Clouds,120,2013-12-02 00:00:00
11:00 AM,82.4,62.6,51,30.04,6.2,SE,18.4,29.9,N/A,,Scattered Clouds,130,2013-12-02 01:00:00
12:00 PM,82,61,38,30.01,,ESE,17.3,,,,,110,2013-12-02 02:00:00
12:00 PM,82.4,60.8,48,30.01,6.2,ESE,17.3,-,N/A,,Unknown,110,2013-12-02 02:00:00
1:05 PM,82.4,62.6,51,29.98,6.2,ESE,17.3,28.8,N/A,,Unknown,120,2013-12-02 03:05:00
2:00 PM,82.4,60.8,48,29.95,6.2,ESE,18.4,-,N/A,,Unknown,110,2013-12-02 04:00:00
3:00 PM,82,60,36,29.92,12,ESE,17.3,,,,Partly Cloudy,110,2013-12-02 05:00:00
3:00 PM,82.4,60.8,48,29.92,6.2,ESE,16.1,-,N/A,,Unknown,110,2013-12-02 05:00:00
4:00 PM,80.6,64.4,58,29.92,6.2,ESE,16.1,-,N/A,,Unknown,110,2013-12-02 06:00:00
5:00 PM,80.6,62.6,54,29.92,6.2,East,16.1,-,N/A,,Unknown,100,2013-12-02 07:00:00
6:00 PM,77,60,46,29.92,,East,15.0,,,,,100,2013-12-02 08:00:00
6:00 PM,77.0,59.0,54,29.92,6.2,East,13.8,-,N/A,,Unknown,100,2013-12-02 08:00:00
7:00 PM,75.2,62.6,65,29.92,6.2,East,10.4,-,N/A,,Unknown,100,2013-12-02 09:00:00
8:00 PM,75.2,62.6,65,29.95,6.2,ESE,9.2,-,N/A,,Unknown,110,2013-12-02 10:00:00
9:00 PM,75,63,58,29.97,,ESE,10.4,,,,Overcast,110,2013-12-02 11:00:00
9:00 PM,75.2,62.6,65,29.98,6.2,ESE,10.4,-,N/A,,Mostly Cloudy,110,2013-12-02 11:00:00
10:00 PM,73.4,62.6,69,29.98,6.2,SE,6.9,-,N/A,,Mostly Cloudy,130,2013-12-02 12:00:00
11:00 PM,68.0,62.6,83,29.98,6.2,SSW,4.6,-,N/A,,Unknown,210,2013-12-02 13:00:00